H1 CPF 2 NER 2024 10 19 9 293 01 glonass129 H2 1106402 9129 37868 2024 10 19 0 0 0 2024 10 22 23 45 0 900 1 1 0 0 0 1 H9 10 0 60602 0.00000 0 -2697009.565 16176417.072 19593016.428 10 0 60602 900.00000 0 -3737388.481 13898568.257 21109321.587 10 0 60602 1800.00000 0 -5024622.096 11564507.993 22217615.715 10 0 60602 2700.00000 0 -6542331.294 9240678.861 22896360.414 10 0 60602 3600.00000 0 -8262109.076 6990432.853 23132269.546 10 0 60602 4500.00000 0 -10144503.874 4871573.836 22920574.276 10 0 60602 5400.00000 0 -12140476.628 2934140.486 22265129.640 10 0 60602 6300.00000 0 -14193273.935 1218520.511 21178359.606 10 0 60602 7200.00000 0 -16240642.123 -246026.055 19681040.127 10 0 60602 8100.00000 0 -18217292.727 -1442373.119 17801922.398 10 0 60602 9000.00000 0 -20057518.670 -2366021.870 15577201.377 10 0 60602 9900.00000 0 -21697853.334 -3025059.685 13049837.561 10 0 60602 10800.00000 0 -23079661.903 -3439585.139 10268743.026 10 0 60602 11700.00000 0 -24151556.121 -3640622.109 7287845.720 10 0 60602 12600.00000 0 -24871529.986 -3668567.681 4165048.953 10 0 60602 13500.00000 0 -25208724.829 -3571238.777 961105.728 10 0 60602 14400.00000 0 -25144747.216 -3401600.099 -2261570.122 10 0 60602 15300.00000 0 -24674481.741 -3215270.231 -5440131.987 10 0 60602 16200.00000 0 -23806362.121 -3067912.962 -8512542.435 10 0 60602 17100.00000 0 -22562087.230 -3012626.397 -11418803.023 10 0 60602 18000.00000 0 -20975792.730 -3097443.001 -14102145.889 10 0 60602 18900.00000 0 -19092712.563 -3363049.150 -16510161.737 10 0 60602 19800.00000 0 -16967386.762 -3840823.454 -18595840.295 10 0 60602 20700.00000 0 -14661491.744 -4551279.208 -20318501.271 10 0 60602 21600.00000 0 -12241385.412 -5502978.741 -21644596.490 10 0 60602 22500.00000 0 -9775471.526 -6691966.829 -22548366.959 10 0 60602 23400.00000 0 -7331495.239 -8101747.746 -23012341.883 10 0 60602 24300.00000 0 -4973884.110 -9703806.985 -23027670.367 10 0 60602 25200.00000 0 -2761246.419 -11458655.265 -22594280.139 10 0 60602 26100.00000 0 -744131.311 -13317350.071 -21720861.353 10 0 60602 27000.00000 0 1036856.489 -15223429.825 -20424677.197 10 0 60602 27900.00000 0 2552510.200 -17115178.435 -18731206.466 10 0 60602 28800.00000 0 3785984.297 -18928124.330 -16673626.567 10 0 60602 29700.00000 0 4733230.160 -20597668.548 -14292148.494 10 0 60602 30600.00000 0 5402889.046 -22061731.538 -11633217.979 10 0 60602 31500.00000 0 5815650.204 -23263307.923 -8748599.516 10 0 60602 32400.00000 0 6003104.257 -24152822.889 -5694361.947 10 0 60602 33300.00000 0 6006142.931 -24690192.576 -2529785.914 10 0 60602 34200.00000 0 5872974.699 -24846503.592 683785.258 10 0 60602 35100.00000 0 5656841.549 -24605242.962 3884128.992 10 0 60602 36000.00000 0 5413533.930 -23963028.686 7009338.624 10 0 60602 36900.00000 0 5198808.765 -22929811.873 9999007.858 10 0 60602 37800.00000 0 5065818.865 -21528543.209 12795382.646 10 0 60602 38700.00000 0 5062661.097 -19794318.407 15344459.594 10 0 60602 39600.00000 0 5230145.362 -17773038.440 17597011.181 10 0 60602 40500.00000 0 5599877.027 -15519639.890 19509519.737 10 0 60602 41400.00000 0 6192732.475 -13095967.904 21045003.793 10 0 60602 42300.00000 0 7017791.282 -10568378.546 22173722.371 10 0 60602 43200.00000 0 8071769.980 -8005168.004 22873744.860 10 0 60602 44100.00000 0 9338982.034 -5473933.052 23131376.242 10 0 60602 45000.00000 0 10791827.346 -3038969.970 22941429.697 10 0 60602 45900.00000 0 12391793.109 -758817.747 22307340.966 10 0 60602 46800.00000 0 14090926.931 1315954.169 21241121.279 10 0 60602 47700.00000 0 15833723.602 3144622.782 19763148.241 10 0 60602 48600.00000 0 17559349.513 4697775.560 17901796.758 10 0 60602 49500.00000 0 19204114.209 5958300.475 15692914.905 10 0 60602 50400.00000 0 20704087.462 6921860.063 13179152.586 10 0 60602 51300.00000 0 21997753.277 7596828.680 10409153.871 10 0 60602 52200.00000 0 23028589.584 8003694.433 7436626.812 10 0 60602 53100.00000 0 23747464.478 8173949.821 4319307.588 10 0 60602 54000.00000 0 24114746.588 8148517.039 1117838.469 10 0 60602 54900.00000 0 24102038.534 7975774.141 -2105418.526 10 0 60602 55800.00000 0 23693457.829 7709265.847 -5287608.365 10 0 60602 56700.00000 0 22886408.619 7405196.916 -8366624.876 10 0 60602 57600.00000 0 21691809.323 7119815.935 -11282341.783 10 0 60602 58500.00000 0 20133764.685 6906802.537 -13977806.754 10 0 60602 59400.00000 0 18248694.788 6814771.251 -16400373.076 10 0 60602 60300.00000 0 16083957.198 6885000.259 -18502744.925 10 0 60602 61200.00000 0 13696020.348 7149483.565 -20243914.139 10 0 60602 62100.00000 0 11148265.666 7629390.967 -21589969.054 10 0 60602 63000.00000 0 8508511.760 8334002.325 -22514758.937 10 0 60602 63900.00000 0 5846365.706 9260161.913 -23000400.931 10 0 60602 64800.00000 0 3230513.416 10392276.019 -23037620.016 10 0 60602 65700.00000 0 726063.153 11702853.455 -22625916.164 10 0 60602 66600.00000 0 -1607946.581 13153565.340 -21773556.603 10 0 60602 67500.00000 0 -3720771.177 14696778.386 -20497394.718 10 0 60602 68400.00000 0 -5571824.454 16277495.956 -18822520.597 10 0 60602 69300.00000 0 -7132107.619 17835624.098 -16781751.578 10 0 60602 70200.00000 0 -8385145.543 19308466.375 -14414974.131 10 0 60602 71100.00000 0 -9327394.231 20633342.106 -11768351.192 10 0 60602 72000.00000 0 -9968105.702 21750217.848 -8893411.514 10 0 60602 72900.00000 0 -10328659.291 22604241.924 -5846039.624 10 0 60602 73800.00000 0 -10441390.519 23148076.348 -2685386.607 10 0 60602 74700.00000 0 -10347969.429 23343929.320 527276.771 10 0 60602 75600.00000 0 -10097398.635 23165204.448 3729742.347 10 0 60602 76500.00000 0 -9743716.707 22597698.976 6860059.729 10 0 60602 77400.00000 0 -9343504.179 21640302.222 9857721.828 10 0 60602 78300.00000 0 -8953297.101 20305166.172 12664818.870 10 0 60602 79200.00000 0 -8627016.278 18617341.806 15227139.920 10 0 60602 80100.00000 0 -8413519.311 16613896.577 17495202.153 10 0 60602 81000.00000 0 -8354377.019 14342549.406 19425189.682 10 0 60602 81900.00000 0 -8481966.453 11859878.934 20979785.511 10 0 60602 82800.00000 0 -8817959.589 9229177.920 22128882.067 10 0 60602 83700.00000 0 -9372270.671 6518040.739 22850157.837 10 0 60602 84600.00000 0 -10142506.540 3795781.636 23129509.798 10 0 60602 85500.00000 0 -11113943.933 1130788.309 22961333.539 10 0 60603 0.00000 0 -12260036.270 -1412081.641 22348645.446 10 0 60603 900.00000 0 -13543431.609 -3773956.804 21303043.198 10 0 60603 1800.00000 0 -14917460.251 -5904156.824 19844504.805 10 0 60603 2700.00000 0 -16328034.499 -7762059.833 18001027.026 10 0 60603 3600.00000 0 -17715882.094 -9318551.588 15808108.646 10 0 60603 4500.00000 0 -19019022.387 -10556996.887 13308086.102 10 0 60603 5400.00000 0 -20175382.653 -11473691.574 10549332.180 10 0 60603 6300.00000 0 -21125445.187 -12077775.103 7585331.474 10 0 60603 7200.00000 0 -21814813.429 -12390606.091 4473649.296 10 0 60603 8100.00000 0 -22196587.812 -12444626.119 1274813.378 10 0 60603 9000.00000 0 -22233449.171 -12281759.088 -1948869.847 10 0 60603 9900.00000 0 -21899359.267 -11951413.633 -5134540.575 10 0 60603 10800.00000 0 -21180803.946 -11508173.703 -8220027.373 10 0 60603 11700.00000 0 -20077523.708 -11009276.311 -11145079.355 10 0 60603 12600.00000 0 -18602698.515 -10511985.090 -13852562.630 10 0 60603 13500.00000 0 -16782577.217 -10070973.149 -16289595.605 10 0 60603 14400.00000 0 -14655566.061 -9735828.416 -18408598.984 10 0 60603 15300.00000 0 -12270814.224 -9548789.426 -20168238.281 10 0 60603 16200.00000 0 -9686356.050 -9542809.295 -21534239.270 10 0 60603 17100.00000 0 -6966888.654 -9740031.251 -22480059.772 10 0 60603 18000.00000 0 -4181279.099 -10150740.959 -22987404.503 10 0 60603 18900.00000 0 -1399906.508 -10772840.052 -23046573.327 10 0 60603 19800.00000 0 1308048.881 -11591862.663 -22656636.933 10 0 60603 20700.00000 0 3877256.015 -12581533.270 -21825437.626 10 0 60603 21600.00000 0 6248712.168 -13704841.022 -20569416.631 10 0 60603 22500.00000 0 8371948.239 -14915583.814 -18913272.701 10 0 60603 23400.00000 0 10206869.686 -16160315.519 -16889460.264 10 0 60603 24300.00000 0 11725158.350 -17380613.139 -14537538.263 10 0 60603 25200.00000 0 12911179.362 -18515567.384 -11903383.727 10 0 60603 26100.00000 0 13762358.270 -19504391.291 -9038286.475 10 0 60603 27000.00000 0 14289015.842 -20289036.994 -5997943.490 10 0 60603 27900.00000 0 14513670.718 -20816710.917 -2841373.087 10 0 60603 28800.00000 0 14469842.026 -21042182.392 370229.644 10 0 60603 29700.00000 0 14200404.702 -20929789.759 3574673.931 10 0 60603 30600.00000 0 13755568.386 -20455060.956 6709968.386 10 0 60603 31500.00000 0 13190565.932 -19605881.888 9715507.562 10 0 60603 32400.00000 0 12563149.023 -18383164.715 12533228.037 10 0 60603 33300.00000 0 11930995.818 -16800988.836 15108713.033 10 0 60603 34200.00000 0 11349138.649 -14886208.985 17392225.681 10 0 60603 35100.00000 0 10867518.545 -12677546.457 19339652.719 10 0 60603 36000.00000 0 10528767.811 -10224200.364 20913342.047 10 0 60603 36900.00000 0 10366312.376 -7584035.108 22082819.499 10 0 60603 37800.00000 0 10402872.516 -4821417.276 22825372.276 10 0 60603 38700.00000 0 10649424.339 -2004789.167 23126488.604 10 0 60603 39600.00000 0 11104665.775 795923.059 22980145.428 10 0 60603 40500.00000 0 11755010.408 3511961.833 22388938.279 10 0 60603 41400.00000 0 12575111.036 6078343.661 21364049.938 10 0 60603 42300.00000 0 13528893.171 8436311.428 19925056.986 10 0 60603 43200.00000 0 14571057.631 10535532.994 18099576.112 10 0 60603 44100.00000 0 15648991.696 12335955.261 15922754.768 10 0 60603 45000.00000 0 16705010.799 13809236.367 13436613.762 10 0 60603 45900.00000 0 17678838.250 14939695.528 10689252.332 10 0 60603 46800.00000 0 18510219.596 15724739.717 7733929.267 10 0 60603 47700.00000 0 19141561.538 16174747.950 4628036.581 10 0 60603 48600.00000 0 19520483.279 16312416.803 1431985.000 10 0 60603 49500.00000 0 19602170.944 16171593.749 -1791977.094 10 0 60603 50400.00000 0 19351433.284 15795647.059 -4980987.522 10 0 60603 51300.00000 0 18744369.064 15235441.270 -8072811.845 10 0 60603 52200.00000 0 17769572.825 14547004.651 -11007076.615 10 0 60603 53100.00000 0 16428825.367 13788988.781 -13726468.186 10 0 60603 54000.00000 0 14737237.529 13020029.716 -16177871.607 10 0 60603 54900.00000 0 12722839.473 12296124.562 -18313425.350 10 0 60603 55800.00000 0 10425631.803 11668136.716 -20091469.617 10 0 60603 56700.00000 0 7896138.075 11179537.233 -21477368.426 10 0 60603 57600.00000 0 5193519.755 10864479.357 -22444188.791 10 0 60603 58500.00000 0 2383333.386 10746288.462 -22973223.480 10 0 60603 59400.00000 0 -464975.188 10836431.428 -23054347.562 10 0 60603 60300.00000 0 -3280733.925 11134008.486 -22686202.546 10 0 60603 61200.00000 0 -5994753.034 11625787.939 -21876205.668 10 0 60603 62100.00000 0 -8541965.554 12286780.771 -20640385.525 10 0 60603 63000.00000 0 -10863890.263 13081329.174 -19003048.734 10 0 60603 63900.00000 0 -12910815.145 13964661.206 -16996285.648 10 0 60603 64800.00000 0 -14643612.024 14884844.331 -14659326.213 10 0 60603 65700.00000 0 -16035108.888 15785054.020 -12037759.771 10 0 60603 66600.00000 0 -17070965.253 16606060.706 -9182635.202 10 0 60603 67500.00000 0 -17750017.065 17288829.731 -6149459.741 10 0 60603 68400.00000 0 -18084079.757 17777124.623 -2997116.586 10 0 60603 69300.00000 0 -18097220.730 18020004.438 213277.319 10 0 60603 70200.00000 0 -17824534.352 17974110.828 3419551.146 10 0 60603 71100.00000 0 -17310473.003 17605649.670 6559675.159 10 0 60603 72000.00000 0 -16606805.637 16891985.102 9572948.239 10 0 60603 72900.00000 0 -15770290.291 15822780.178 12401156.029 10 0 60603 73800.00000 0 -14860158.202 14400637.092 14989678.578 10 0 60603 74700.00000 0 -13935514.505 12641210.620 17288527.573 10 0 60603 75600.00000 0 -13052763.334 10572789.838 19253294.815 10 0 60603 76500.00000 0 -12263163.838 8235364.762 20845995.316 10 0 60603 77400.00000 0 -11610617.962 5679215.316 22035790.252 10 0 60603 78300.00000 0 -11129781.259 2963079.257 22799577.122 10 0 60603 79200.00000 0 -10844574.846 151972.587 23122436.585 10 0 60603 80100.00000 0 -10767160.337 -2685249.891 22997927.661 10 0 60603 81000.00000 0 -10897420.923 -5478495.555 22428225.351 10 0 60603 81900.00000 0 -11222971.234 -8159091.364 21424097.144 10 0 60603 82800.00000 0 -11719697.129 -10662389.618 20004717.414 10 0 60603 83700.00000 0 -12352804.768 -12930215.621 18197321.438 10 0 60603 84600.00000 0 -13078337.157 -14913056.437 16036703.477 10 0 60603 85500.00000 0 -13845096.610 -16571899.807 13564566.381 10 0 60604 0.00000 0 -14596894.020 -17879645.932 10828733.377 10 0 60604 900.00000 0 -15275031.817 -18822032.717 7882233.898 10 0 60604 1800.00000 0 -15820915.357 -19398032.644 4782283.610 10 0 60604 2700.00000 0 -16178683.427 -19619705.463 1589172.787 10 0 60604 3600.00000 0 -16297744.400 -19511509.781 -1634911.758 10 0 60604 4500.00000 0 -16135109.153 -19109102.358 -4827109.006 10 0 60604 5400.00000 0 -15657419.433 -18457675.333 -7925124.997 10 0 60604 6300.00000 0 -14842582.968 -17609901.924 -10868467.097 10 0 60604 7200.00000 0 -13680943.283 -16623578.426 -13599645.101 10 0 60604 8100.00000 0 -12175932.183 -15559063.757 -16065313.623 10 0 60604 9000.00000 0 -10344175.185 -14476626.752 -18217331.491 10 0 60604 9900.00000 0 -8215043.954 -13433815.436 -20013715.700 10 0 60604 10800.00000 0 -5829673.736 -12482961.371 -21419470.102 10 0 60604 11700.00000 0 -3239486.901 -11668926.127 -22407271.875 10 0 60604 12600.00000 0 -504284.892 -11027186.000 -22958002.197 10 0 60604 13500.00000 0 2310010.747 -10582336.185 -23061111.085 10 0 60604 14400.00000 0 5133872.971 -10347077.078 -22714810.061 10 0 60604 15300.00000 0 7896833.545 -10321724.434 -21926089.998 10 0 60604 16200.00000 0 10530185.375 -10494262.368 -20710565.172 10 0 60604 17100.00000 0 12969610.082 -10840934.997 -19092148.027 10 0 60604 18000.00000 0 15157621.715 -11327349.524 -17102562.515 10 0 60604 18900.00000 0 17045725.803 -11910042.103 -14780706.963 10 0 60604 19800.00000 0 18596205.444 -12538438.451 -12171880.158 10 0 60604 20700.00000 0 19783462.085 -13157124.899 -9326886.905 10 0 60604 21600.00000 0 20594857.666 -13708332.972 -6301041.352 10 0 60604 22500.00000 0 21031025.791 -14134532.097 -3153088.080 10 0 60604 23400.00000 0 21105641.782 -14381021.055 55937.684 10 0 60604 24300.00000 0 20844663.927 -14398409.373 3263888.589 10 0 60604 25200.00000 0 20285079.987 -14144884.912 6408699.907 10 0 60604 26100.00000 0 19473213.227 -13588173.232 9429577.942 10 0 60604 27000.00000 0 18462659.989 -12707107.413 12268160.109 10 0 60604 27900.00000 0 17311945.598 -11492743.299 14869625.554 10 0 60604 28800.00000 0 16081996.414 -9948973.968 17183736.296 10 0 60604 29700.00000 0 14833532.953 -8092617.741 19165790.486 10 0 60604 30600.00000 0 13624491.767 -5952975.446 20777471.041 10 0 60604 31500.00000 0 12507582.295 -3570874.173 21987574.795 10 0 60604 32400.00000 0 11528079.195 -997235.389 22772609.427 10 0 60604 33300.00000 0 10721941.012 1708775.479 23117247.491 10 0 60604 34200.00000 0 10114332.817 4481943.978 23014629.166 10 0 60604 35100.00000 0 9718614.170 7253457.973 22466507.656 10 0 60604 36000.00000 0 9535834.952 9953516.613 21483233.576 10 0 60604 36900.00000 0 9554761.069 12513991.202 20083577.249 10 0 60604 37800.00000 0 9752430.379 14871029.520 18294390.460 10 0 60604 38700.00000 0 10095217.307 16967496.653 16150112.006 10 0 60604 39600.00000 0 10540363.386 18755151.252 13692124.354 10 0 60604 40500.00000 0 11037911.075 20196466.192 10967971.637 10 0 60604 41400.00000 0 11532960.815 21266016.683 8030452.254 10 0 60604 42300.00000 0 11968156.760 21951376.248 4936602.299 10 0 60604 43200.00000 0 12286296.205 22253481.368 1746588.819 10 0 60604 44100.00000 0 12432951.424 22186447.791 -1477465.696 10 0 60604 45000.00000 0 12358991.305 21776844.904 -4672704.044 10 0 60604 45900.00000 0 12022893.668 21062457.885 -7776775.210 10 0 60604 46800.00000 0 11392747.627 20090589.653 -10729069.599 10 0 60604 47700.00000 0 10447858.261 18915974.777 -13471922.363 10 0 60604 48600.00000 0 9179882.918 17598394.586 -15951759.285 10 0 60604 49500.00000 0 7593448.634 16200095.768 -18120160.818 10 0 60604 50400.00000 0 5706222.669 14783123.387 -19934821.753 10 0 60604 51300.00000 0 3548431.897 13406682.774 -21360386.508 10 0 60604 52200.00000 0 1161850.632 12124643.207 -22369142.957 10 0 60604 53100.00000 0 -1401700.602 10983289.873 -22941561.010 10 0 60604 54000.00000 0 -4082281.950 10019419.330 -23066665.750 10 0 60604 54900.00000 0 -6814105.334 9258858.503 -22742238.593 10 0 60604 55800.00000 0 -9528053.988 8715468.624 -21974843.649 10 0 60604 56700.00000 0 -12154344.445 8390674.436 -20779680.162 10 0 60604 57600.00000 0 -14625219.532 8273536.326 -19180265.357 10 0 60604 58500.00000 0 -16877560.015 8341359.877 -17207955.425 10 0 60604 59400.00000 0 -18855306.605 8560814.567 -14901315.434 10 0 60604 60300.00000 0 -20511592.452 8889511.993 -12305351.752 10 0 60604 61200.00000 0 -21810498.862 9277974.881 -9470623.088 10 0 60604 62100.00000 0 -22728363.098 9671912.125 -6452248.364 10 0 60604 63000.00000 0 -23254586.152 10014702.683 -3308831.326 10 0 60604 63900.00000 0 -23391909.304 10249982.973 -101323.205 10 0 60604 64800.00000 0 -23156150.526 10324228.599 3108154.479 10 0 60604 65700.00000 0 -22575414.015 10189222.030 6257504.426 10 0 60604 66600.00000 0 -21688807.862 9804303.056 9285842.846 10 0 60604 67500.00000 0 -20544724.768 9138308.302 12134661.459 10 0 60604 68400.00000 0 -19198758.389 8171119.185 14748941.040 10 0 60604 69300.00000 0 -17711342.380 6894754.063 17078196.417 10 0 60604 70200.00000 0 -16145210.094 5313959.078 19077434.425 10 0 60604 71100.00000 0 -14562779.809 3446272.676 20708008.006 10 0 60604 72000.00000 0 -13023573.032 1321560.168 21938351.498 10 0 60604 72900.00000 0 -11581771.818 -1018963.925 22744584.243 10 0 60604 73800.00000 0 -10284015.300 -3524187.300 23110971.792 10 0 60604 74700.00000 0 -9167525.910 -6134967.449 23030236.173 10 0 60604 75600.00000 0 -8258642.511 -8786340.808 22503709.045 10 0 60604 76500.00000 0 -7571821.298 -11409984.822 21541323.983 10 0 60604 77400.00000 0 -7109146.473 -13936833.446 20161446.645 10 0 60604 78300.00000 0 -6860372.023 -16299739.782 18390544.278 10 0 60604 79200.00000 0 -6803494.166 -18436076.831 16262698.764 10 0 60604 80100.00000 0 -6905832.052 -20290168.879 13818970.336 10 0 60604 81000.00000 0 -7125572.896 -21815452.215 11106622.096 10 0 60604 81900.00000 0 -7413717.911 -22976274.142 8178218.416 10 0 60604 82800.00000 0 -7716347.834 -23749253.612 5090613.333 10 0 60604 83700.00000 0 -7977112.657 -24124144.650 1903847.754 10 0 60604 84600.00000 0 -8139839.678 -24104164.379 -1320023.198 10 0 60604 85500.00000 0 -8151148.192 -23705770.065 -4518149.258 10 0 60605 0.00000 0 -7962958.037 -22957893.264 -7628125.278 10 0 60605 900.00000 0 -7534783.037 -21900662.122 -10589228.451 10 0 60605 1800.00000 0 -6835709.592 -20583666.682 -13343622.150 10 0 60605 2700.00000 0 -5845973.456 -19063839.672 -15837506.338 10 0 60605 3600.00000 0 -4558065.501 -17403044.283 -18022185.883 10 0 60605 4500.00000 0 -2977317.449 -15665471.958 -19855035.830 10 0 60605 5400.00000 0 -1121941.199 -13914961.704 -21300343.200 10 0 60605 6300.00000 0 977480.912 -12212355.533 -22330008.098 10 0 60605 7200.00000 0 3279033.833 -10613002.698 -22924090.167 10 0 60605 8100.00000 0 5730991.754 -9164518.478 -23071190.011 10 0 60605 9000.00000 0 8273759.926 -7904891.786 -22768658.877 10 0 60605 9900.00000 0 10842154.180 -6861020.440 -22022633.587 10 0 60605 10800.00000 0 13367922.042 -6047734.171 -20847897.406 10 0 60605 11700.00000 0 15782399.404 -5467344.320 -19267571.019 10 0 60605 12600.00000 0 18019191.519 -5109736.547 -17312641.162 10 0 60605 13500.00000 0 20016766.478 -4952999.823 -15021337.601 10 0 60605 14400.00000 0 21720853.629 -4964562.317 -12438371.858 10 0 60605 15300.00000 0 23086547.927 -5102783.647 -9614053.755 10 0 60605 16200.00000 0 24080034.054 -5318934.070 -6603303.846 10 0 60605 17100.00000 0 24679860.309 -5559475.385 -3464581.620 10 0 60605 18000.00000 0 24877711.348 -5768546.166 -258750.695 10 0 60605 18900.00000 0 24678649.783 -5890545.964 2952096.916 10 0 60605 19800.00000 0 24100818.791 -5872709.540 6105834.965 10 0 60605 20700.00000 0 23174620.031 -5667563.147 9141492.987 10 0 60605 21600.00000 0 21941402.655 -5235160.256 12000420.125 10 0 60605 22500.00000 0 20451719.017 -4545003.570 14627401.505 10 0 60605 23400.00000 0 18763220.051 -3577573.474 16971707.045 10 0 60605 24300.00000 0 16938277.680 -2325399.290 18988054.084 10 0 60605 25200.00000 0 15041432.270 -793628.519 20637466.944 10 0 60605 26100.00000 0 13136769.999 999930.292 21888018.361 10 0 60605 27000.00000 0 11285337.495 3025294.141 22715439.801 10 0 60605 27900.00000 0 9542699.518 5241303.261 23103589.851 10 0 60605 28800.00000 0 7956739.584 7597090.880 23044772.000 10 0 60605 29700.00000 0 6565793.733 10033966.809 22539895.576 10 0 60605 30600.00000 0 5397194.273 12487639.649 21598475.925 10 0 60605 31500.00000 0 4466283.951 14890688.166 20238472.487 10 0 60605 32400.00000 0 3775942.020 17175181.712 18485966.098 10 0 60605 33300.00000 0 3316642.860 19275342.634 16374679.546 10 0 60605 34200.00000 0 3067045.944 21130140.985 13945348.413 10 0 60605 35100.00000 0 2995093.775 22685713.639 11244952.148 10 0 60605 36000.00000 0 3059572.975 23897506.268 8325818.310 10 0 60605 36900.00000 0 3212073.732 24732047.218 5244615.960 10 0 60605 37800.00000 0 3399265.395 25168277.127 2061256.876 10 0 60605 38700.00000 0 3565391.793 25198376.325 -1162274.188 10 0 60605 39600.00000 0 3654879.713 24828053.085 -4363136.850 10 0 60605 40500.00000 0 3614948.342 24076278.719 -7478875.168 10 0 60605 41400.00000 0 3398106.827 22974479.311 -10448654.575 10 0 60605 42300.00000 0 2964431.387 21565217.456 -13214469.512 10 0 60605 43200.00000 0 2283522.680 19900419.573 -15722296.084 10 0 60605 44100.00000 0 1336057.772 18039224.192 -17923165.206 10 0 60605 45000.00000 0 114868.670 16045543.113 -19774133.480 10 0 60605 45900.00000 0 -1374500.107 13985439.655 -21239131.545 10 0 60605 46800.00000 0 -3113779.706 11924435.920 -22289672.475 10 0 60605 47700.00000 0 -5072512.058 9924863.696 -22905406.119 10 0 60605 48600.00000 0 -7209109.441 8043371.254 -23074508.797 10 0 60605 49500.00000 0 -9472393.618 6328691.018 -22793901.481 10 0 60605 50400.00000 0 -11803549.194 4819761.398 -22069293.264 10 0 60605 51300.00000 0 -14138408.487 3544280.342 -20915050.632 10 0 60605 52200.00000 0 -16409971.444 2517749.372 -19353896.555 10 0 60605 53100.00000 0 -18551054.563 1743045.682 -17416446.813 10 0 60605 54000.00000 0 -20496957.831 1210537.323 -15140594.055 10 0 60605 54900.00000 0 -22188038.415 898733.483 -12570752.923 10 0 60605 55800.00000 0 -23572084.184 775439.451 -9756982.153 10 0 60605 56700.00000 0 -24606389.075 799364.816 -6754001.625 10 0 60605 57600.00000 0 -25259445.105 922114.831 -3620124.195 10 0 60605 58500.00000 0 -25512182.190 1090479.252 -416123.436 10 0 60605 59400.00000 0 -25358705.959 1248921.066 2795940.632 10 0 60605 60300.00000 0 -24806504.757 1342159.735 5953915.338 10 0 60605 61200.00000 0 -23876118.964 1317740.237 8996746.116 10 0 60605 62100.00000 0 -22600287.912 1128480.277 11865642.111 10 0 60605 63000.00000 0 -21022610.892 734693.553 14505195.349 10 0 60605 63900.00000 0 -19195778.465 106096.548 16864433.272 10 0 60605 64800.00000 0 -17179447.445 -776680.435 18897785.975 10 0 60605 65700.00000 0 -15037847.095 -1921040.947 20565951.150 10 0 60605 66600.00000 0 -12837214.697 -3321872.961 21836641.584 10 0 60605 67500.00000 0 -10643165.264 -4961526.102 22685202.152 10 0 60605 68400.00000 0 -8518102.690 -6810318.000 23095085.347 10 0 60605 69300.00000 0 -6518777.927 -8827550.777 23058176.598 10 0 60605 70200.00000 0 -4694093.930 -10962998.002 22574962.982 10 0 60605 71100.00000 0 -3083247.278 -13158803.159 21654541.335 10 0 60605 72000.00000 0 -1714283.092 -15351713.618 20314464.250 10 0 60605 72900.00000 0 -603123.272 -17475559.879 18580425.172 10 0 60605 73800.00000 0 246890.972 -19463879.118 16485786.502 10 0 60605 74700.00000 0 844922.265 -21252575.180 14070957.554 10 0 60605 75600.00000 0 1212027.943 -22782504.723 11382632.202 10 0 60605 76500.00000 0 1380042.992 -24001881.180 8472899.005 10 0 60605 77400.00000 0 1390000.968 -24868394.859 5398239.622 10 0 60605 78300.00000 0 1290158.834 -25350958.508 2218434.088 10 0 60605 79200.00000 0 1133709.033 -25431002.848 -1004605.972 10 0 60605 80100.00000 0 976276.201 -25103265.174 -4208052.931 10 0 60605 81000.00000 0 873305.839 -24376035.542 -7329402.721 10 0 60605 81900.00000 0 877457.561 -23270848.262 -10307712.566 10 0 60605 82800.00000 0 1036115.869 -21821630.351 -13084810.672 10 0 60605 83700.00000 0 1389126.636 -20073342.219 -15606452.194 10 0 60605 84600.00000 0 1966857.954 -18080167.949 -17823396.840 10 0 60605 85500.00000 0 2788669.902 -15903332.093 -19692385.274 99